Wind_Speed
16 15 15 16 22 16 16 13 10 6 6 3 4 9 13 15 16 20 23 21 17 16 15 18 20 15 4 6 7 10 10 8 10 8 5 6 6 6 11 18 21 23 9 11
18 16 15 17 19 18 17 17 13 9 5 1 3 6 8 12 13 17 19 18 16 14 13 20 19 18 4 3 9 12 15 19 13 12 12 11 10 10 12 12 14 17 16 16
19 17 23 18 17 17 18 17 16 12 9 5 1 5 6 7 11 14 18 18 14 13 20 14 12 12 7 7 8 13 17 23 18 15 14 13 13 13 12 12 16 16 11 10
25 28 22 22 18 17 13 21 15 13 8 5 8 6 14 7 8 15 16 18 17 17 23 17 16 16 20 8 15 20 19 17 19 21 21 20 20 22 21 14 13 13 16 13
25 28 25 25 18 21 18 22 16 15 11 9 11 6 12 14 9 11 13 16 17 23 23 17 17 15 22 11 12 21 28 15 19 25 28 23 22 29 22 19 8 11 14 13
33 30 29 24 22 25 25 20 18 17 16 10 13 11 6 12 11 9 11 14 22 27 17 16 18 19 9 9 12 16 18 22 21 28 28 28 23 24 24 6 13 13 17 16
35 30 31 27 25 25 22 22 17 15 14 12 12 13 9 14 10 9 8 15 21 25 13 16 19 9 12 13 18 22 19 13 12 14 6 13 17 21 3 4 9 12 18 21
36 35 30 28 28 25 23 22 21 18 18 14 19 10 11 17 8 11 12 13 20 15 7 12 11 15 9 11 11 11 12 14 13 8 7 8 5 7 6 8 12 17 20 24
38 35 34 32 29 31 28 27 20 21 21 19 12 16 13 15 13 14 15 17 17 9 7 6 9 9 6 6 7 7 9 10 10 11 10 10 7 9 9 15 19 23 27 29
40 37 38 34 34 34 31 24 26 25 22 19 15 17 12 18 14 14 10 15 12 6 7 8 8 9 9 7 6 7 7 8 10 11 12 14 13 13 17 21 24 27 31 33
38 35 40 39 36 36 35 31 30 21 23 21 16 15 13 17 14 9 12 11 9 11 15 12 16 15 12 11 9 8 11 12 13 15 16 18 18 18 20 23 26 29 31 32
32 32 37 35 37 39 37 31 27 28 26 26 23 20 20 22 17 15 17 15 9 16 14 14 17 16 13 14 14 13 15 18 21 23 26 26 24 23 25 27 29 32 33 34
32 34 35 36 36 40 39 35 34 27 24 24 23 16 21 24 21 20 19 17 14 14 12 14 15 17 14 13 14 14 16 19 22 24 28 27 26 26 28 31 33 34 35 35
32 33 33 28 28 29 37 37 35 30 28 24 26 22 23 26 24 18 17 20 16 15 14 17 17 20 18 15 16 18 21 23 24 27 28 27 25 26 29 31 33 33 33 32
30 29 32 32 32 36 34 35 33 35 32 29 21 24 20 25 21 19 20 19 16 15 16 18 22 23 21 19 18 21 22 24 29 30 29 27 28 30 31 31 29 29 29 29
24 25 28 30 32 35 37 37 36 35 34 32 31 28 22 23 15 18 20 19 18 18 19 22 25 21 22 20 20 21 25 28 29 30 30 29 30 31 33 30 28 27 29 31
25 25 26 27 26 32 38 38 36 33 33 30 24 22 23 16 18 19 23 25 22 22 24 20 18 20 21 21 22 23 25 27 28 29 27 29 29 28 28 27 27 29 32 34
21 22 24 19 23 30 25 23 28 30 28 24 22 24 19 17 17 20 22 20 21 24 24 20 20 17 19 21 22 23 25 27 27 26 27 28 27 26 27 27 30 34 35 33
19 14 19 20 21 20 27 30 27 29 29 26 27 27 18 18 20 22 23 24 25 26 26 22 21 20 21 21 24 26 28 29 27 26 28 26 25 25 26 29 33 32 28 27
24 20 16 19 21 22 19 19 21 22 26 27 26 21 19 21 18 19 23 22 24 25 20 19 20 23 25 26 27 28 30 28 26 27 26 25 25 26 29 30 28 26 25 25
29 26 22 20 22 16 21 16 16 24 19 21 24 27 24 22 23 21 21 23 20 16 16 17 20 24 25 26 28 29 27 25 26 25 23 24 25 28 29 26 25 24 26 27
32 28 25 22 25 27 22 19 22 16 19 22 25 24 23 24 23 21 20 19 17 16 18 20 22 23 26 28 28 24 25 26 24 23 23 25 27 29 26 25 24 26 27 27
40 38 32 28 21 26 22 17 17 19 19 19 21 27 28 24 19 19 24 16 18 17 19 22 24 26 29 28 25 25 25 25 24 24 25 26 29 28 25 24 26 28 27 28
42 46 43 40 30 20 26 20 21 19 15 13 24 28 27 18 17 28 22 16 14 16 19 23 25 28 28 26 25 26 26 25 24 24 26 28 29 28 25 26 28 27 27 28
41 45 49 44 36 30 23 30 25 20 20 22 19 23 22 21 25 21 14 18 16 18 22 26 25 26 26 25 25 26 25 25 25 25 27 28 28 27 26 26 27 27 29 29
34 36 38 33 40 35 33 29 28 20 20 22 22 27 24 27 27 18 23 24 21 23 25 26 24 27 26 26 26 26 25 25 25 26 28 29 29 27 26 26 26 27 28 27
Wind_Direction
211 205 186 191 203 214 204 203 210 192 153 129 49 53 32 18 27 22 18 29 34 23 11 4 0 351 291 342 358 0 349 337 329 330 313 310 307 311 334 354 0 21 42 0
216 224 214 213 194 195 206 214 222 222 192 192 86 56 20 14 14 8 11 17 36 28 7 16 26 18 251 314 334 336 334 332 308 308 307 303 312 326 333 337 347 2 12 27
219 227 227 227 217 199 205 209 226 230 235 275 195 318 343 359 8 353 351 0 7 4 356 322 347 1 348 293 298 296 300 313 297 287 284 285 301 303 308 323 328 339 350 1
218 227 228 232 229 223 220 234 229 230 236 281 272 327 311 326 347 346 336 345 342 359 348 350 324 326 312 317 293 294 277 291 274 268 270 278 289 290 297 302 328 330 330 330
229 230 230 233 233 232 218 238 234 243 245 271 295 312 287 298 319 328 338 340 344 346 342 337 310 295 307 319 319 323 269 306 277 259 264 275 280 280 288 280 302 310 314 318
226 225 226 230 228 235 230 245 237 251 256 261 247 276 306 281 303 320 329 343 336 336 342 339 326 319 329 23 348 357 337 285 283 255 264 271 280 273 286 261 283 301 317 319
233 229 228 226 230 238 241 237 241 259 268 255 244 274 266 287 312 333 316 318 327 329 348 4 12 334 112 65 45 34 26 4 327 247 278 267 264 271 107 232 277 309 313 315
236 236 236 230 233 244 240 231 228 242 254 249 248 270 275 287 289 305 319 333 334 331 336 2 13 25 23 13 19 29 28 38 67 51 34 3 47 62 330 309 302 298 297 304
236 231 239 236 235 238 243 236 227 232 252 243 256 271 286 290 282 290 301 308 326 347 338 357 352 5 13 348 359 6 13 7 358 349 347 339 7 314 304 300 298 301 307 309
237 234 242 238 236 238 238 240 228 223 228 247 253 255 255 272 296 303 286 293 315 351 337 325 343 342 337 328 335 328 331 346 339 334 331 322 316 315 304 298 304 306 302 304
237 230 244 240 236 242 243 240 238 221 236 238 254 269 238 274 294 298 278 293 296 310 300 333 341 335 327 317 316 322 326 329 331 330 327 325 323 312 307 307 301 298 297 301
234 237 236 239 240 234 237 235 233 232 238 238 234 235 263 275 283 293 309 293 296 310 294 297 311 325 318 321 314 312 322 325 329 332 329 322 315 313 310 307 304 300 302 301
232 231 231 234 232 234 236 237 238 232 229 234 244 252 262 270 280 279 291 286 290 304 289 296 304 319 308 309 307 300 303 308 315 316 316 314 313 313 311 306 304 302 299 296
228 231 230 235 246 248 240 239 240 237 236 240 247 248 252 262 271 278 278 284 288 296 281 292 300 300 307 293 294 296 300 307 308 308 309 309 308 305 302 301 296 293 294 296
224 230 233 232 231 241 239 243 242 241 242 234 243 254 259 260 263 277 266 276 285 287 285 291 294 300 300 300 298 297 301 302 304 308 308 307 306 303 303 302 302 300 298 298
222 231 233 232 235 241 244 243 242 246 246 246 241 241 231 252 248 261 260 273 283 284 303 291 292 294 292 291 295 299 301 302 305 307 310 308 306 307 305 303 300 300 300 301
227 235 235 237 236 240 245 247 245 245 249 253 247 256 255 250 257 255 261 269 279 291 298 292 292 287 287 291 293 295 298 305 306 305 302 303 301 302 303 301 301 302 302 301
234 236 234 226 230 233 241 246 244 242 241 241 232 233 243 244 244 254 263 276 275 277 287 284 294 288 286 288 292 297 302 304 303 300 302 302 304 306 305 305 304 304 303 302
223 230 227 227 235 238 239 244 249 243 241 236 239 246 237 249 250 254 268 267 275 263 280 286 281 278 283 283 287 296 302 306 306 305 302 302 303 304 305 305 306 305 305 306
219 227 229 224 220 234 247 256 241 226 230 229 239 251 248 251 257 257 262 260 254 268 279 283 282 288 290 290 291 296 301 307 304 300 301 303 304 307 305 306 306 306 309 310
226 226 228 221 222 230 234 228 236 226 231 241 236 244 255 253 255 259 264 254 250 262 275 285 295 299 298 298 299 302 307 301 300 300 301 300 304 306 305 309 310 314 317 317
228 230 227 227 223 222 233 226 232 234 236 244 250 245 244 243 251 263 241 230 242 269 285 287 294 303 306 305 304 303 299 299 300 299 300 304 309 312 313 314 316 320 319 317
228 227 216 220 218 229 221 218 228 248 256 250 234 232 228 230 246 236 222 244 251 285 293 296 302 311 310 307 301 297 301 303 302 302 305 309 314 312 312 315 319 321 318 318
232 228 228 227 219 221 215 214 214 231 247 259 238 224 218 221 235 224 215 231 265 294 303 301 308 312 310 304 297 302 305 304 303 304 308 312 313 312 314 315 318 317 318 319
226 228 228 230 224 220 210 223 225 226 243 261 246 220 219 218 231 242 206 239 274 296 304 310 305 310 308 301 302 305 306 305 303 305 306 309 311 311 311 314 315 317 322 322
228 230 229 229 229 218 224 205 224 232 223 244 251 236 237 224 242 204 232 244 268 293 302 305 307 312 306 304 305 305 304 303 303 304 307 310 312 310 308 311 315 321 323 320
Height
5923 5925 5928 5932 5930 5932 5933 5933 5934 5934 5933 5933 5933 5932 5929 5927 5925 5923 5921 5920 5919 5917 5913 5910 5909 5908 5907 5906 5904 5903 5902 5901 5900 5899 5897 5897 5896 5895 5895 5894 5890 5887 5884 5882
5921 5922 5926 5926 5928 5931 5931 5932 5934 5934 5933 5934 5933 5932 5931 5929 5926 5924 5922 5921 5920 5917 5913 5911 5908 5904 5905 5904 5903 5901 5900 5901 5899 5899 5898 5897 5897 5896 5895 5895 5892 5889 5888 5886
5917 5921 5919 5922 5925 5928 5930 5932 5932 5933 5933 5934 5933 5932 5931 5929 5927 5924 5922 5922 5920 5918 5913 5900 5908 5907 5907 5904 5901 5899 5898 5897 5898 5896 5894 5894 5895 5894 5893 5893 5891 5888 5887 5886
5912 5913 5916 5918 5921 5924 5930 5929 5930 5931 5932 5938 5934 5936 5930 5929 5928 5925 5922 5921 5920 5918 5914 5911 5908 5905 5903 5900 5898 5896 5894 5894 5895 5894 5892 5890 5890 5891 5891 5890 5890 5888 5885 5883
5909 5909 5912 5914 5918 5919 5923 5923 5926 5928 5930 5933 5932 5935 5931 5929 5927 5925 5923 5920 5920 5917 5913 5910 5908 5905 5900 5897 5894 5893 5890 5889 5889 5889 5888 5889 5888 5886 5886 5886 5889 5887 5885 5882
5899 5903 5906 5910 5913 5914 5918 5921 5924 5926 5927 5931 5931 5932 5934 5930 5926 5924 5922 5921 5918 5915 5913 5908 5904 5900 5897 5894 5893 5889 5882 5882 5884 5884 5883 5884 5884 5884 5884 5883 5886 5884 5884 5881
5894 5899 5901 5906 5908 5910 5914 5918 5924 5928 5928 5929 5923 5928 5931 5925 5923 5923 5922 5921 5918 5914 5910 5907 5901 5896 5895 5894 5893 5888 5883 5881 5878 5878 5879 5878 5877 5879 5881 5880 5881 5880 5880 5877
5889 5893 5897 5902 5904 5907 5909 5914 5921 5924 5926 5926 5920 5927 5925 5922 5921 5921 5920 5920 5917 5913 5911 5908 5903 5900 5899 5897 5894 5891 5889 5886 5883 5883 5881 5879 5876 5877 5878 5876 5875 5875 5875 5872
5883 5889 5889 5894 5899 5901 5904 5907 5915 5921 5921 5920 5925 5923 5920 5918 5919 5918 5918 5917 5915 5913 5910 5908 5906 5903 5901 5898 5897 5893 5891 5889 5888 5886 5882 5881 5876 5878 5874 5874 5873 5871 5869 5866
5875 5883 5882 5888 5891 5894 5898 5903 5906 5911 5916 5918 5920 5919 5921 5916 5915 5915 5915 5914 5913 5912 5909 5906 5905 5903 5901 5899 5896 5894 5892 5890 5888 5885 5881 5880 5877 5873 5874 5872 5869 5866 5865 5862
5871 5877 5877 5880 5885 5888 5891 5895 5900 5908 5911 5914 5916 5916 5912 5913 5912 5912 5912 5911 5910 5909 5907 5904 5902 5900 5899 5897 5895 5893 5890 5888 5885 5883 5880 5877 5874 5872 5869 5866 5864 5862 5859 5855
5866 5870 5872 5874 5879 5880 5883 5889 5894 5897 5903 5906 5910 5914 5907 5908 5908 5908 5908 5907 5906 5905 5903 5901 5899 5897 5894 5892 5890 5888 5886 5883 5880 5877 5875 5873 5870 5867 5864 5861 5858 5856 5852 5849
5858 5862 5865 5868 5871 5873 5876 5882 5887 5892 5898 5902 5902 5908 5905 5904 5904 5903 5904 5903 5902 5901 5899 5897 5896 5893 5891 5889 5887 5885 5883 5881 5878 5875 5873 5869 5865 5861 5857 5855 5852 5849 5846 5843
5850 5855 5860 5864 5867 5868 5871 5875 5879 5884 5889 5894 5896 5898 5899 5898 5899 5898 5899 5899 5898 5897 5895 5893 5891 5890 5887 5885 5883 5881 5879 5876 5873 5871 5868 5864 5860 5857 5855 5851 5848 5844 5840 5835
5844 5848 5852 5857 5859 5860 5864 5868 5872 5874 5880 5886 5892 5893 5894 5892 5893 5893 5893 5894 5894 5893 5891 5889 5887 5885 5882 5880 5878 5875 5873 5870 5868 5864 5860 5856 5854 5851 5847 5843 5839 5836 5832 5829
5837 5841 5844 5848 5852 5854 5856 5861 5865 5867 5871 5875 5879 5883 5886 5886 5887 5888 5889 5889 5889 5888 5886 5884 5882 5880 5878 5875 5873 5871 5868 5865 5861 5856 5853 5851 5849 5845 5841 5838 5834 5830 5826 5821
5831 5834 5837 5842 5847 5849 5850 5853 5858 5862 5865 5869 5872 5876 5877 5880 5882 5883 5884 5884 5884 5883 5881 5879 5877 5875 5873 5871 5869 5865 5862 5859 5855 5852 5850 5847 5843 5839 5836 5832 5827 5823 5819 5815
5825 5828 5831 5838 5841 5841 5848 5850 5851 5855 5859 5863 5867 5869 5873 5875 5876 5878 5878 5879 5879 5878 5877 5875 5873 5870 5868 5865 5863 5860 5858 5855 5851 5848 5845 5841 5836 5832 5829 5825 5821 5817 5811 5806
5821 5823 5827 5831 5835 5841 5840 5841 5845 5848 5853 5858 5861 5863 5867 5870 5871 5872 5873 5873 5873 5872 5872 5870 5867 5865 5863 5860 5858 5856 5853 5848 5845 5841 5838 5834 5830 5826 5822 5818 5813 5808 5804 5799
5816 5819 5822 5829 5831 5835 5838 5839 5840 5845 5849 5853 5855 5858 5861 5864 5865 5867 5866 5866 5866 5867 5866 5864 5862 5860 5857 5855 5852 5849 5846 5842 5838 5835 5831 5827 5823 5819 5816 5811 5806 5801 5796 5793
5810 5813 5817 5822 5825 5832 5831 5834 5837 5840 5849 5848 5850 5852 5855 5858 5859 5860 5860 5860 5861 5862 5860 5858 5856 5854 5851 5848 5845 5843 5839 5835 5831 5827 5824 5821 5817 5814 5809 5803 5798 5793 5788 5784
5803 5808 5812 5816 5819 5823 5826 5830 5834 5839 5840 5841 5843 5845 5848 5850 5852 5854 5854 5855 5856 5857 5855 5853 5850 5847 5844 5841 5839 5835 5832 5829 5825 5822 5819 5815 5811 5806 5801 5795 5791 5785 5780 5777
5795 5799 5803 5807 5815 5815 5821 5826 5829 5831 5833 5833 5834 5836 5839 5842 5845 5848 5849 5850 5852 5851 5849 5846 5844 5841 5838 5835 5832 5829 5825 5822 5819 5815 5812 5807 5803 5797 5792 5788 5782 5777 5773 5770
5783 5787 5791 5796 5805 5809 5814 5818 5822 5824 5826 5827 5829 5830 5833 5836 5839 5840 5843 5845 5846 5845 5842 5840 5838 5835 5832 5829 5826 5823 5819 5815 5812 5808 5805 5800 5795 5791 5785 5780 5776 5771 5767 5762
5773 5776 5783 5789 5797 5803 5808 5811 5814 5818 5820 5821 5823 5825 5827 5830 5832 5831 5834 5838 5839 5838 5836 5834 5832 5829 5826 5823 5820 5816 5812 5808 5805 5801 5797 5793 5788 5782 5778 5773 5769 5765 5760 5754
5765 5770 5775 5784 5786 5795 5798 5803 5808 5812 5814 5816 5817 5818 5821 5823 5822 5825 5829 5831 5832 5831 5830 5828 5825 5823 5820 5816 5813 5809 5805 5801 5798 5795 5791 5786 5780 5775 5771 5767 5763 5758 5753 5748